When you browse on this site, cookies collect data to enhance your experience and personalize the content and advertising you see.
Visit our Privacy Policy to learn more. By continuing to use the site, you agree to this use of cookies and data.
  • In Latvia
  • List of Countries
  • For 7 days
  • Water Temperature
  • Satellite Maps
  • Weather Map
  • Weather Widgets
  • user-avatar
    Login

    Hourly Weather Zahla

    Today, 19 June, Wednesday

    Time Temperature Precipitation Wind Pressure Humidity
    00:00 +17°C° 0 mm 2 mps 672 mmHg 77%
    01:00 +17°C° 0 mm 2 mps 671 mmHg 75%
    02:00 +18°C° 0 mm 1 mps 671 mmHg 69%
    03:00 +18°C° 0 mm 1 mps 671 mmHg 69%
    04:00 +18°C° 0 mm 1 mps 671 mmHg 68%
    05:00 +18°C° 0 mm 1 mps 671 mmHg 67%
    06:00 +19°C° 0 mm 2 mps 672 mmHg 63%
    07:00 +20°C° 0 mm 2 mps 672 mmHg 58%
    08:00 +22°C° 0 mm 3 mps 672 mmHg 54%
    09:00 +24°C° 0 mm 3 mps 673 mmHg 52%
    10:00 +25°C° 0 mm 4 mps 673 mmHg 51%
    11:00 +26°C° 0 mm 4 mps 673 mmHg 49%
    12:00 +26°C° 0 mm 5 mps 673 mmHg 49%
    13:00 +26°C° 0 mm 5 mps 673 mmHg 49%
    14:00 +26°C° 0 mm 5 mps 673 mmHg 49%
    15:00 +26°C° 0 mm 5 mps 672 mmHg 50%
    16:00 +25°C° 0 mm 4 mps 672 mmHg 51%
    17:00 +25°C° 0 mm 4 mps 672 mmHg 52%
    18:00 +22°C° 0 mm 3 mps 672 mmHg 60%
    19:00 +21°C° 0 mm 3 mps 671 mmHg 68%
    20:00 +19°C° 0 mm 2 mps 671 mmHg 76%
    21:00 +19°C° 0 mm 2 mps 671 mmHg 74%
    22:00 +19°C° 0 mm 2 mps 671 mmHg 73%
    23:00 +18°C° 0 mm 2 mps 671 mmHg 72%

    Tomorrow, 20 June, Thursday

    Time Temperature Precipitation Wind Pressure Humidity
    00:00 +18°C° 0 mm 2 mps 671 mmHg 73%
    01:00 +17°C° 0 mm 2 mps 670 mmHg 74%
    02:00 +17°C° 0 mm 2 mps 670 mmHg 75%
    03:00 +17°C° 0 mm 2 mps 670 mmHg 73%
    04:00 +17°C° 0 mm 2 mps 670 mmHg 70%
    05:00 +17°C° 0 mm 2 mps 670 mmHg 68%
    06:00 +18°C° 0 mm 2 mps 671 mmHg 61%
    07:00 +20°C° 0 mm 3 mps 671 mmHg 53%
    08:00 +22°C° 0 mm 3 mps 672 mmHg 45%
    09:00 +23°C° 0 mm 4 mps 672 mmHg 42%
    10:00 +25°C° 0 mm 4 mps 672 mmHg 39%
    11:00 +26°C° 0 mm 5 mps 673 mmHg 36%
    12:00 +27°C° 0 mm 5 mps 672 mmHg 34%
    13:00 +27°C° 0 mm 5 mps 672 mmHg 32%
    14:00 +27°C° 0 mm 6 mps 672 mmHg 31%
    15:00 +27°C° 0 mm 5 mps 672 mmHg 33%
    16:00 +26°C° 0 mm 5 mps 671 mmHg 35%
    17:00 +25°C° 0 mm 4 mps 671 mmHg 37%
    18:00 +22°C° 0 mm 4 mps 671 mmHg 44%
    19:00 +21°C° 0 mm 3 mps 671 mmHg 50%
    20:00 +19°C° 0 mm 3 mps 670 mmHg 57%
    21:00 +18°C° 0 mm 2 mps 670 mmHg 58%
    22:00 +18°C° 0 mm 2 mps 670 mmHg 60%
    23:00 +17°C° 0 mm 2 mps 670 mmHg 61%

    Day after tomorrow, 21 June, Friday

    Time Temperature Precipitation Wind Pressure Humidity
    00:00 +17°C° 0 mm 2 mps 670 mmHg 63%
    01:00 +17°C° 0 mm 2 mps 670 mmHg 65%
    02:00 +17°C° 0 mm 2 mps 670 mmHg 67%
    03:00 +17°C° 0 mm 2 mps 670 mmHg 65%
    04:00 +17°C° 0 mm 2 mps 670 mmHg 62%
    05:00 +17°C° 0 mm 2 mps 670 mmHg 60%
    06:00 +19°C° 0 mm 2 mps 671 mmHg 55%
    07:00 +21°C° 0 mm 3 mps 671 mmHg 50%
    08:00 +24°C° 0 mm 3 mps 672 mmHg 44%
    09:00 +25°C° 0 mm 3 mps 672 mmHg 44%
    10:00 +26°C° 0 mm 4 mps 672 mmHg 44%
    11:00 +27°C° 0 mm 4 mps 673 mmHg 44%
    12:00 +27°C° 0 mm 4 mps 672 mmHg 43%
    13:00 +27°C° 0 mm 4 mps 672 mmHg 43%
    14:00 +28°C° 0 mm 4 mps 672 mmHg 43%
    15:00 +27°C° 0 mm 4 mps 672 mmHg 44%
    16:00 +27°C° 0 mm 3 mps 671 mmHg 45%
    17:00 +26°C° 0 mm 3 mps 671 mmHg 47%
    18:00 +25°C° 0 mm 3 mps 671 mmHg 53%
    19:00 +23°C° 0 mm 2 mps 671 mmHg 59%
    20:00 +20°C° 0 mm 2 mps 671 mmHg 65%
    21:00 +20°C° 0 mm 2 mps 671 mmHg 62%
    22:00 +20°C° 0 mm 1 mps 671 mmHg 60%
    23:00 +20°C° 0 mm 1 mps 671 mmHg 58%

    22 June, Saturday

    Time Temperature Precipitation Wind Pressure Humidity
    00:00 +19°C° 0 mm 1 mps 670 mmHg 56%
    01:00 +19°C° 0 mm 1 mps 670 mmHg 54%
    02:00 +19°C° 0 mm 1 mps 670 mmHg 53%
    03:00 +18°C° 0 mm 1 mps 670 mmHg 55%
    04:00 +18°C° 0 mm 1 mps 670 mmHg 58%
    05:00 +18°C° 0 mm 1 mps 670 mmHg 60%
    06:00 +20°C° 0 mm 2 mps 671 mmHg 55%
    07:00 +23°C° 0 mm 2 mps 672 mmHg 51%
    08:00 +25°C° 0 mm 2 mps 672 mmHg 46%
    09:00 +26°C° 0 mm 3 mps 673 mmHg 43%
    10:00 +27°C° 0 mm 3 mps 673 mmHg 41%
    11:00 +28°C° 0 mm 3 mps 673 mmHg 38%
    12:00 +29°C° 0 mm 4 mps 673 mmHg 38%
    13:00 +29°C° 0 mm 4 mps 673 mmHg 40%
    14:00 +29°C° 0 mm 4 mps 673 mmHg 42%
    15:00 +29°C° 0 mm 3 mps 673 mmHg 44%
    16:00 +28°C° 0 mm 3 mps 672 mmHg 46%
    17:00 +27°C° 0 mm 3 mps 672 mmHg 48%
    18:00 +26°C° 0 mm 2 mps 672 mmHg 55%
    19:00 +24°C° 0 mm 2 mps 672 mmHg 62%
    20:00 +22°C° 0 mm 1 mps 671 mmHg 69%
    21:00 +21°C° 0 mm 1 mps 671 mmHg 68%
    22:00 +21°C° 0 mm 1 mps 671 mmHg 68%
    23:00 +18°C° 0 mm 0 mps 671 mmHg 67%

    23 June, Sunday

    Time Temperature Precipitation Wind Pressure Humidity
    00:00 +18°C° 0 mm 0 mps 671 mmHg 64%
    01:00 +17°C° 0 mm 0 mps 671 mmHg 61%
    02:00 +17°C° 0 mm 0 mps 671 mmHg 58%
    03:00 +17°C° 0 mm 0 mps 671 mmHg 55%
    04:00 +16°C° 0 mm 0 mps 671 mmHg 52%
    05:00 +16°C° 0 mm 0 mps 671 mmHg 49%
    06:00 +19°C° 0 mm 0 mps 672 mmHg 42%
    07:00 +24°C° 0 mm 1 mps 672 mmHg 35%
    08:00 +27°C° 0 mm 1 mps 673 mmHg 28%
    09:00 +28°C° 0 mm 1 mps 674 mmHg 28%
    10:00 +29°C° 0 mm 2 mps 674 mmHg 28%
    11:00 +31°C° 0 mm 2 mps 674 mmHg 27%
    12:00 +31°C° 0 mm 3 mps 674 mmHg 28%
    13:00 +33°C° 0 mm 3 mps 674 mmHg 29%
    14:00 +33°C° 0 mm 3 mps 674 mmHg 29%
    15:00 +31°C° 0 mm 3 mps 673 mmHg 32%
    16:00 +31°C° 0 mm 2 mps 673 mmHg 35%
    17:00 +30°C° 0 mm 2 mps 673 mmHg 37%
    18:00 +28°C° 0 mm 2 mps 672 mmHg 45%
    19:00 +26°C° 0 mm 1 mps 672 mmHg 53%
    20:00 +24°C° 0 mm 1 mps 672 mmHg 61%
    21:00 +24°C° 0 mm 1 mps 672 mmHg 61%
    22:00 +24°C° 0 mm 1 mps 672 mmHg 61%
    23:00 +23°C° 0 mm 1 mps 672 mmHg 61%

    24 June, Monday

    Time Temperature Precipitation Wind Pressure Humidity
    00:00 +23°C° 0 mm 1 mps 671 mmHg 61%
    01:00 +22°C° 0 mm 1 mps 671 mmHg 61%
    02:00 +22°C° 0 mm 1 mps 671 mmHg 61%
    03:00 +22°C° 0 mm 1 mps 671 mmHg 58%
    04:00 +22°C° 0 mm 1 mps 671 mmHg 56%
    05:00 +22°C° 0 mm 1 mps 671 mmHg 53%
    06:00 +25°C° 0 mm 1 mps 672 mmHg 45%
    07:00 +27°C° 0 mm 1 mps 673 mmHg 37%
    08:00 +30°C° 0 mm 1 mps 673 mmHg 29%
    09:00 +31°C° 0 mm 1 mps 673 mmHg 27%
    10:00 +32°C° 0 mm 2 mps 674 mmHg 25%
    11:00 +34°C° 0 mm 2 mps 674 mmHg 23%
    12:00 +35°C° 0 mm 2 mps 673 mmHg 23%
    13:00 +35°C° 0 mm 3 mps 673 mmHg 24%
    14:00 +36°C° 0 mm 3 mps 673 mmHg 25%
    15:00 +35°C° 0 mm 3 mps 673 mmHg 27%
    16:00 +34°C° 0 mm 2 mps 672 mmHg 30%
    17:00 +34°C° 0 mm 2 mps 672 mmHg 32%
    18:00 +31°C° 0 mm 2 mps 672 mmHg 39%
    19:00 +29°C° 0 mm 1 mps 671 mmHg 46%
    20:00 +27°C° 0 mm 1 mps 671 mmHg 52%
    21:00 +26°C° 0 mm 1 mps 671 mmHg 52%
    22:00 +26°C° 0 mm 1 mps 671 mmHg 52%
    23:00 +25°C° 0 mm 1 mps 671 mmHg 51%
    Show more